[[{"header":{"parameterUnit":"m.s-1","parameterCategory":1,"la1":30.2991,"la2":30.254,"lo1":-89.0895,"lo2":-89.0444,"dy":0.0017,"dx":0.0017,"nx":28,"ny":28,"refTime":"2024-06-23T21:00:00:Z","depth":0,"parameterNumber":2,"parameterNumberName":"U-component_of_WINDS"},"data":[0,0,0,0,0,0,0,0,0,0,0,0,0,0,0,0,0,0,0,0,0,0,0,0,0,0,0,0,0,0,0,0,0,0,0,0,0,0,0,0,0,0,0,0,0,0,0,0,0,0,0,0,0,0,0,0,0,0,0.2117,0.2118,0,0.2191,0.2192,0.2193,0.2236,0.2236,0.2237,0.2237,0.2313,0.2315,0.2317,0,0,0,0,0,0,0,0,0,0,0,0,0,0.2016,0.2018,0.2117,0.2118,0.2119,0.2191,0.2192,0.2193,0.2236,0.2236,0.2237,0.2237,0.2312,0.2315,0.2317,0,0,0,0,0,0,0,0,0,0,0,0,0,0.2072,0.2018,0.2117,0.2149,0.2153,0.2191,0.2192,0.2193,0.2236,0.2236,0.2237,0.2237,0.2312,0.2314,0.2317,0.2329,0,0,0.2326,0.2327,0,0,0,0,0,0,0,0,0.2069,0.2075,0.2144,0.2147,0.2151,0.2205,0.2184,0.2238,0.2236,0.2205,0.2237,0.2237,0.2277,0.2282,0.2296,0.2332,0.2335,0.2326,0.2328,0.2329,0.233,0,0,0,0,0,0,0,0.2065,0.2073,0.2146,0.2145,0.2149,0.2161,0.2169,0.2195,0.2238,0.2207,0.2211,0.2219,0.2279,0.2293,0.2298,0.2337,0.2326,0.2328,0.233,0.2331,0.2387,0.2387,0,0,0,0,0,0,0.2055,0.2069,0.2144,0.2149,0.211,0.2162,0.2172,0.2187,0.2238,0.2246,0.2218,0.2221,0.2288,0.2295,0.2301,0.2318,0.2329,0.2331,0.2333,0.2387,0.2387,0.2387,0,0,0,0,0,0,0.2053,0.2062,0.2141,0.211,0.2121,0.2164,0.2181,0.2189,0.2203,0.2246,0.2255,0.2225,0.2288,0.2297,0.2321,0.2321,0.2333,0.2335,0.2387,0.2387,0.2387,0.2352,0,0,0,0,0,0,0.205,0.2061,0.2065,0.211,0.2122,0.216,0.2181,0.219,0.2207,0.2211,0.2254,0.2262,0.2289,0.2317,0.2324,0.2325,0.2337,0.2388,0.2387,0.2387,0.2354,0.2351,0.2348,0,0,0,0,0,0.2046,0.2052,0.2065,0.2074,0.2129,0.216,0.2167,0.2199,0.2207,0.2212,0.224,0.226,0.232,0.2319,0.2328,0.233,0.2388,0.2387,0.2387,0.2355,0.2351,0.2349,0,0,0,0,0,0,0.2007,0.2059,0.2073,0.2094,0.2122,0.2167,0.2175,0.2194,0.2221,0.2223,0.2261,0.227,0.2291,0.2313,0.2311,0.2344,0.2356,0.2357,0.2329,0.2326,0.2323,0.2318,0.234,0,0,0,0,0,0.2001,0.2022,0.2066,0.208,0.2093,0.2131,0.2146,0.2168,0.2199,0.2211,0.2241,0.2271,0.2296,0.2312,0.2338,0.2357,0.2368,0.2362,0.236,0.2357,0.2358,0.2371,0.2369,0.2385,0.2385,0.2385,0,0,0.1988,0.2019,0.203,0.2073,0.2097,0.2118,0.2141,0.2163,0.2179,0.2215,0.224,0.2263,0.2298,0.232,0.2331,0.2339,0.2356,0.2357,0.2355,0.2357,0.237,0.2368,0.2367,0.2385,0.2385,0.2385,0,0,0.1976,0.2001,0.2016,0.204,0.2077,0.2102,0.2105,0.2148,0.2164,0.219,0.2217,0.2238,0.228,0.2305,0.2323,0.232,0.234,0.2328,0.2314,0.2326,0.2325,0.2324,0.2324,0.2323,0.2328,0.2328,0.2328,0,0.1956,0.1988,0.2021,0.2041,0.206,0.2092,0.2108,0.213,0.2173,0.2185,0.2193,0.2248,0.2274,0.2302,0.2302,0.2315,0.2321,0.2323,0.2322,0.2322,0.2321,0.2321,0.2321,0.2327,0.2327,0.2327,0.2327,0,0.1962,0.1984,0.1992,0.2033,0.2052,0.207,0.2105,0.2121,0.2141,0.2166,0.2192,0.2225,0.2258,0.2266,0.2286,0.2298,0.2301,0.2315,0.2328,0.2317,0.2318,0.2319,0.2324,0.2325,0.2325,0.2326,0,0,0.1928,0.1986,0.1989,0.2008,0.2051,0.2069,0.2088,0.2121,0.2133,0.2162,0.218,0.2216,0.2229,0.2249,0.2272,0.2282,0.2279,0.2295,0.2296,0.2291,0.2294,0.2284,0.2284,0.2292,0.2292,0.2292,0.2292,0,0.1922,0.1958,0.1989,0.2014,0.2035,0.2067,0.2084,0.2112,0.2136,0.2158,0.2184,0.2209,0.2224,0.2237,0.2248,0.2276,0.228,0.2277,0.2309,0.231,0.23,0.2284,0.2273,0.2271,0.2292,0.2292,0.2292,0,0.1921,0.1949,0.1976,0.2017,0.2027,0.2042,0.2074,0.2094,0.2127,0.2144,0.2167,0.2191,0.2213,0.2224,0.2256,0.2253,0.2268,0.2284,0.2285,0.229,0.2301,0.2289,0.2271,0.2271,0.2293,0.2293,0.2293,0,0.1894,0.1938,0.196,0.1975,0.2024,0.2033,0.2054,0.2087,0.2105,0.2133,0.2145,0.2176,0.2193,0.2216,0.2248,0.2252,0.2277,0.229,0.2292,0.2291,0.2296,0.2295,0.2281,0.2304,0.2304,0.2304,0.2304,0,0.1885,0.1901,0.1948,0.1962,0.1981,0.2015,0.2033,0.2056,0.2086,0.2105,0.2134,0.2151,0.2192,0.2214,0.2239,0.2262,0.227,0.2284,0.2291,0.2282,0.228,0.2293,0.2294,0.2304,0.2304,0.2304,0.2304,0,0.1859,0.1891,0.1917,0.1961,0.1972,0.1984,0.2022,0.2036,0.2061,0.2085,0.2093,0.2133,0.2161,0.2195,0.2233,0.225,0.2271,0.2281,0.226,0.2264,0.2264,0.2264,0.2258,0.2259,0.2281,0.228,0.228,0,0.1851,0.1864,0.1909,0.1924,0.1943,0.1967,0.1985,0.202,0.2037,0.2076,0.2086,0.2117,0.2143,0.2186,0.2219,0.2249,0.226,0.2255,0.2264,0.2255,0.226,0.2259,0.2261,0.2253,0.2253,0.2252,0.2252,0,0.1835,0.185,0.1875,0.1906,0.1926,0.1952,0.1979,0.199,0.203,0.2049,0.2078,0.2098,0.2137,0.2167,0.2202,0.2224,0.2245,0.2249,0.2251,0.2243,0.223,0.2238,0.2254,0.2249,0.2249,0.225,0.225,0.225,0.1818,0.1831,0.1865,0.1892,0.1916,0.194,0.1956,0.1984,0.2008,0.2043,0.2062,0.2091,0.2124,0.2172,0.2193,0.2217,0.2224,0.2227,0.2228,0.2228,0.2226,0.2226,0.2223,0.2223,0.2223,0.2223,0.2223,0,0.1804,0.1827,0.1852,0.1888,0.191,0.1927,0.1958,0.1975,0.2,0.2029,0.2054,0.2087,0.2116,0.2151,0.2183,0.2195,0.2205,0.2202,0.2202,0.2207,0.2217,0.2212,0.2193,0.2193,0.2193,0.2193,0.2193,0.2193,0.1799,0.1822,0.1842,0.1877,0.19,0.1928,0.1945,0.1968,0.1991,0.2027,0.2051,0.2074,0.2106,0.214,0.2167,0.2177,0.2188,0.2181,0.2194,0.2203,0.2206,0.2208,0.2204,0.2183,0.2183,0.2182,0.2182,0.2182]},{"header":{"parameterUnit":"m.s-1","parameterCategory":1,"la1":30.2991,"la2":30.254,"lo1":-89.0895,"lo2":-89.0444,"dy":0.0017,"dx":0.0017,"nx":28,"ny":28,"refTime":"2024-06-23T21:00:00:Z","depth":0,"parameterNumber":3,"parameterNumberName":"V-component_of_WINDS"},"data":[0,0,0,0,0,0,0,0,0,0,0,0,0,0,0,0,0,0,0,0,0,0,0,0,0,0,0,0,0,0,0,0,0,0,0,0,0,0,0,0,0,0,0,0,0,0,0,0,0,0,0,0,0,0,0,0,0,0,-0.5851,-0.5851,0,-0.5864,-0.5864,-0.5864,-0.5858,-0.5857,-0.5857,-0.5857,-0.587,-0.5871,-0.5872,0,0,0,0,0,0,0,0,0,0,0,0,0,-0.5821,-0.5822,-0.5851,-0.5851,-0.5851,-0.5864,-0.5864,-0.5864,-0.5858,-0.5857,-0.5857,-0.5857,-0.587,-0.5871,-0.5872,0,0,0,0,0,0,0,0,0,0,0,0,0,-0.5834,-0.5822,-0.5851,-0.585,-0.585,-0.5864,-0.5864,-0.5864,-0.5858,-0.5857,-0.5857,-0.5856,-0.587,-0.5871,-0.5872,-0.5888,0,0,-0.5875,-0.5875,0,0,0,0,0,0,0,0,-0.5834,-0.5835,-0.585,-0.585,-0.585,-0.5859,-0.5859,-0.5872,-0.5858,-0.5855,-0.5857,-0.5856,-0.5867,-0.5868,-0.5872,-0.5889,-0.5889,-0.5875,-0.5876,-0.5876,-0.5876,0,0,0,0,0,0,0,-0.5833,-0.5835,-0.5856,-0.585,-0.585,-0.5849,-0.585,-0.5861,-0.5863,-0.5855,-0.5855,-0.5856,-0.5867,-0.5871,-0.5872,-0.589,-0.5875,-0.5876,-0.5876,-0.5877,-0.5922,-0.5923,0,0,0,0,0,0,-0.5832,-0.5834,-0.5856,-0.5856,-0.584,-0.585,-0.5851,-0.5856,-0.5863,-0.5864,-0.5857,-0.5856,-0.5869,-0.5871,-0.5872,-0.5893,-0.5876,-0.5877,-0.5877,-0.5922,-0.5923,-0.5923,0,0,0,0,0,0,-0.5831,-0.5834,-0.5855,-0.5845,-0.5848,-0.5851,-0.5857,-0.5857,-0.5861,-0.5865,-0.5865,-0.586,-0.5869,-0.5871,-0.5885,-0.5893,-0.5877,-0.5878,-0.5921,-0.5922,-0.5923,-0.5934,0,0,0,0,0,0,-0.583,-0.5833,-0.5839,-0.5845,-0.5848,-0.5867,-0.5857,-0.5857,-0.5863,-0.5862,-0.5868,-0.5869,-0.5869,-0.5883,-0.5886,-0.5895,-0.5879,-0.592,-0.5922,-0.5923,-0.5933,-0.5935,-0.5937,0,0,0,0,0,-0.5829,-0.5842,-0.584,-0.5842,-0.5856,-0.5867,-0.5869,-0.5869,-0.5863,-0.587,-0.5872,-0.5868,-0.5892,-0.5885,-0.5887,-0.5897,-0.592,-0.5921,-0.5923,-0.5932,-0.5935,-0.5937,0,0,0,0,0,0,-0.5836,-0.5842,-0.584,-0.5855,-0.5861,-0.5866,-0.5874,-0.5872,-0.5879,-0.5878,-0.5878,-0.5879,-0.5894,-0.5896,-0.5888,-0.5914,-0.5905,-0.5907,-0.5911,-0.5914,-0.5916,-0.5916,-0.588,0,0,0,0,0,-0.584,-0.5849,-0.5853,-0.5866,-0.5869,-0.5871,-0.5876,-0.5876,-0.5882,-0.5884,-0.5888,-0.5894,-0.5903,-0.5908,-0.5917,-0.5933,-0.5935,-0.5941,-0.5943,-0.5945,-0.5947,-0.5957,-0.5961,-0.5928,-0.5928,-0.5928,0,0,-0.5847,-0.5851,-0.5857,-0.5868,-0.5872,-0.5882,-0.5873,-0.5883,-0.5891,-0.5885,-0.5899,-0.5902,-0.5909,-0.5924,-0.5931,-0.5927,-0.5957,-0.5947,-0.5948,-0.5949,-0.5959,-0.5962,-0.5965,-0.5929,-0.5929,-0.5928,0,0,-0.5865,-0.5868,-0.588,-0.5885,-0.5892,-0.5893,-0.5896,-0.5902,-0.5904,-0.5918,-0.5914,-0.5923,-0.5938,-0.5944,-0.5948,-0.597,-0.5967,-0.5972,-0.5984,-0.5994,-0.5997,-0.5999,-0.6008,-0.601,-0.5974,-0.5974,-0.5974,0,-0.5872,-0.5886,-0.5886,-0.5897,-0.5902,-0.5899,-0.5911,-0.5915,-0.5925,-0.5929,-0.5924,-0.5944,-0.5948,-0.5965,-0.5971,-0.5974,-0.5978,-0.5972,-0.5996,-0.5998,-0.6001,-0.6009,-0.6012,-0.5975,-0.5975,-0.5975,-0.5975,0,-0.5896,-0.5906,-0.5915,-0.5925,-0.5931,-0.5942,-0.5944,-0.5951,-0.595,-0.5952,-0.5967,-0.5972,-0.5982,-0.5986,-0.5985,-0.6004,-0.6001,-0.5996,-0.5987,-0.6004,-0.6012,-0.6015,-0.5976,-0.5976,-0.5975,-0.5975,0,0,-0.5919,-0.5929,-0.5932,-0.5937,-0.5945,-0.5953,-0.5965,-0.5975,-0.5981,-0.5987,-0.5998,-0.6011,-0.6007,-0.6013,-0.6012,-0.6021,-0.6039,-0.6016,-0.6016,-0.6021,-0.6062,-0.6066,-0.607,-0.6037,-0.6038,-0.6038,-0.6062,0,-0.5938,-0.5958,-0.5959,-0.5978,-0.5988,-0.5985,-0.5995,-0.6002,-0.6004,-0.6013,-0.6016,-0.6026,-0.602,-0.6023,-0.6032,-0.6035,-0.6048,-0.6034,-0.6048,-0.6048,-0.6047,-0.6073,-0.6078,-0.6099,-0.6065,-0.6065,-0.6065,0,-0.5962,-0.5971,-0.5991,-0.5999,-0.6003,-0.6012,-0.6022,-0.6031,-0.6038,-0.604,-0.6046,-0.6045,-0.6058,-0.6049,-0.6067,-0.6057,-0.6063,-0.6066,-0.6067,-0.6069,-0.6058,-0.6077,-0.6106,-0.6109,-0.607,-0.607,-0.6069,0,-0.5978,-0.5994,-0.6009,-0.6013,-0.6022,-0.6029,-0.6033,-0.604,-0.6047,-0.6055,-0.606,-0.607,-0.6075,-0.6083,-0.6085,-0.6078,-0.6104,-0.6094,-0.6106,-0.6106,-0.6112,-0.6112,-0.6143,-0.6114,-0.6114,-0.6114,-0.6114,0,-0.6,-0.6012,-0.6016,-0.6025,-0.604,-0.6041,-0.6055,-0.6059,-0.6065,-0.6075,-0.6073,-0.6083,-0.6084,-0.6094,-0.6096,-0.6111,-0.6114,-0.6116,-0.6116,-0.6116,-0.6116,-0.6121,-0.612,-0.6115,-0.6115,-0.6115,-0.6115,0,-0.602,-0.6022,-0.6038,-0.6046,-0.6048,-0.6059,-0.6066,-0.6075,-0.6078,-0.6091,-0.6094,-0.6098,-0.611,-0.6113,-0.6127,-0.6128,-0.6147,-0.6145,-0.6144,-0.6144,-0.6156,-0.6155,-0.6192,-0.6198,-0.6165,-0.6165,-0.6165,0,-0.6034,-0.6043,-0.6053,-0.606,-0.6064,-0.6075,-0.6082,-0.6083,-0.6091,-0.6101,-0.6109,-0.6121,-0.613,-0.615,-0.6154,-0.6165,-0.6165,-0.6177,-0.6166,-0.6167,-0.6166,-0.6166,-0.6167,-0.6179,-0.6179,-0.618,-0.618,0,-0.6058,-0.606,-0.607,-0.6081,-0.6089,-0.6097,-0.6105,-0.6111,-0.6114,-0.6122,-0.6135,-0.6142,-0.6157,-0.6169,-0.6181,-0.6185,-0.6184,-0.6183,-0.6187,-0.6187,-0.6187,-0.6188,-0.6151,-0.6182,-0.6182,-0.6182,-0.6182,-0.6182,-0.6076,-0.6086,-0.6094,-0.6106,-0.6112,-0.612,-0.6129,-0.6134,-0.6144,-0.6156,-0.6157,-0.6171,-0.6179,-0.6194,-0.62,-0.6211,-0.6207,-0.6212,-0.6213,-0.6215,-0.6216,-0.6185,-0.6213,-0.6213,-0.6213,-0.6213,-0.6213,0,-0.6102,-0.6108,-0.6118,-0.613,-0.6139,-0.6137,-0.6146,-0.6154,-0.6167,-0.6175,-0.6184,-0.6199,-0.6212,-0.6218,-0.623,-0.6238,-0.6237,-0.6241,-0.6241,-0.6242,-0.6218,-0.6215,-0.6241,-0.6241,-0.6241,-0.6241,-0.6241,-0.6241,-0.6117,-0.6133,-0.6135,-0.6154,-0.616,-0.6174,-0.6179,-0.6187,-0.6194,-0.6211,-0.6221,-0.6225,-0.6232,-0.6245,-0.6257,-0.6258,-0.6263,-0.6267,-0.6269,-0.6246,-0.6244,-0.6241,-0.6237,-0.6268,-0.6268,-0.6291,-0.6292,-0.6292]}]]